Location: Godiavel Galaoual
(15.2485°N, 12.6604°W)
Time: 03:38:08
(UTC+00:00)

N. Korean satellite - Pass Details

Date: 02 December 2021
Orbit: 447 x 491 km, 97.3° (Epoch: 22 January)

Event Time Altitude Azimuth Distance (km) Brightness Sun altitude
Rises 05:53:23 0° 8° (N) 2,437 10.0 -16.2°
Reaches altitude 10° 05:55:24 10° 7° (N) 1,566 9.0 -15.8°
Maximum altitude 05:58:44 74° 282° (WNW) 466 6.2 -15.0°
Drops below altitude 10° 06:02:05 10° 196° (SSW) 1,571 9.2 -14.2°
Sets 06:04:07 0° 194° (SSW) 2,446 10.2 -13.8°
